Weather History for KOGB - March, 2013

Change the Weather History Date:

Saturday, March 16, 2013

  Actual Average Record
Temperature  
Mean Temperature 67 °F 57 °F  
Max Temperature 81 °F 69 °F 86 °F (2012)
Min Temperature 52 °F 44 °F 26 °F (1970)
Degree Days  
Heating Degree Days 0 9  
Month to date heating degree days 238 171  
Since 1 July heating degree days 1871 2103  
Cooling Degree Days 2 1  
Month to date cooling degree days 2 8  
Year to date cooling degree days 22 11  
Growing Degree Days 16 (Base 50)    
Moisture  
Dew Point 40 °F    
Average Humidity 42    
Maximum Humidity 68    
Minimum Humidity 21    
Precipitation  
Precipitation 0.00 in 0.13 in 1.91 in (1956)
Month to date precipitation 0.53 2.11  
Year to date precipitation 8.69 9.68  
Sea Level Pressure  
Sea Level Pressure 29.94 in    
Wind  
Wind Speed 13 mph (WSW)    
Max Wind Speed 26 mph    
Max Gust Speed 33 mph    
Visibility 10 miles    
Events      
T = Trace of Precipitation, MM = Missing Value Source: NWS Daily Summary

Daily Weather History Graph

Daily Weather History Graph

Search for Another Location

Airport or City:

Trip Planner

Search our weather history database for the weather conditions in past years. The results will help you decide how hot, cold, wet, or windy it might be!

Date:

Astronomy

Mar. 16, 2013 Rise Set
Actual Time 7:32 AM EDT 7:32 PM EDT
Civil Twilight 7:07 AM EDT 7:57 PM EDT
Nautical Twilight 6:38 AM EDT 8:25 PM EDT
Astronomical Twilight 6:09 AM EDT 8:54 PM EDT
Moon 10:15 AM EDT (3/16) No Moon Set
Length of Visible Light 12h 49m
Length of Day
12h 00m
Waxing Crescent, 23% of the Moon is Illuminated
Mar 16
Waxing Crescent
Mar 19
First Quarter
Mar 27
Full
Apr 3
Last Quarter
Apr 10
New

Hourly Weather History & Observations

Time (EDT) Temp. Dew Point Humidity Pressure Visibility Wind Dir Wind Speed Gust Speed Precip Events Conditions
12:53 AM 55.9 °F 37.9 °F 51% 30.00 in 10.0 mi SSW 6.9 mph - N/A   Clear
1:53 AM 55.0 °F 37.9 °F 53% 29.99 in 10.0 mi South 5.8 mph - N/A   Clear
2:53 AM 55.0 °F 39.9 °F 57% 29.99 in 10.0 mi SW 9.2 mph - N/A   Clear
3:53 AM 55.9 °F 39.0 °F 53% 29.98 in 10.0 mi SW 10.4 mph - N/A   Clear
4:53 AM 55.9 °F 39.9 °F 55% 29.97 in 10.0 mi WSW 10.4 mph - N/A   Clear
5:53 AM 55.0 °F 41.0 °F 59% 29.99 in 10.0 mi WSW 8.1 mph - N/A   Clear
6:53 AM 54.0 °F 41.0 °F 62% 29.99 in 10.0 mi SSW 5.8 mph - N/A   Clear
7:53 AM 52.0 °F 41.0 °F 66% 30.00 in 10.0 mi SSW 4.6 mph - N/A   Clear
8:53 AM 57.9 °F 42.1 °F 56% 30.01 in 10.0 mi West 11.5 mph - N/A   Clear
9:53 AM 62.1 °F 42.1 °F 48% 30.00 in 10.0 mi West 16.1 mph 23.0 mph N/A   Clear
10:53 AM 66.9 °F 42.1 °F 40% 29.99 in 10.0 mi WSW 16.1 mph 21.9 mph N/A   Clear
11:53 AM 71.1 °F 42.1 °F 35% 29.97 in 10.0 mi WNW 17.3 mph - N/A   Clear
12:53 PM 75.0 °F 43.0 °F 32% 29.94 in 10.0 mi WSW 15.0 mph 23.0 mph N/A   Clear
1:53 PM 78.1 °F 43.0 °F 29% 29.91 in 10.0 mi West 15.0 mph 23.0 mph N/A   Clear
2:53 PM 80.1 °F 39.0 °F 23% 29.87 in 10.0 mi West 19.6 mph 26.5 mph N/A   Clear
3:53 PM 80.1 °F 37.9 °F 22% 29.86 in 10.0 mi WSW 19.6 mph 29.9 mph N/A   Clear
4:53 PM 80.1 °F 39.0 °F 23% 29.85 in 10.0 mi WSW 18.4 mph 25.3 mph N/A   Clear
5:53 PM 78.1 °F 39.0 °F 25% 29.86 in 10.0 mi WSW 21.9 mph 33.4 mph N/A   Clear
6:53 PM 75.9 °F 39.0 °F 26% 29.86 in 10.0 mi WSW 12.7 mph 26.5 mph N/A   Clear
7:53 PM 72.0 °F 39.9 °F 31% 29.88 in 10.0 mi WSW 18.4 mph - N/A   Clear
8:53 PM 70.0 °F 41.0 °F 35% 29.90 in 10.0 mi WSW 13.8 mph - N/A   Clear
9:53 PM 68.0 °F 41.0 °F 37% 29.92 in 10.0 mi WSW 11.5 mph - N/A   Clear
10:53 PM 66.9 °F 41.0 °F 39% 29.94 in 10.0 mi WSW 12.7 mph - N/A   Clear
11:53 PM 64.0 °F 42.1 °F 45% 29.94 in 10.0 mi SW 10.4 mph - N/A   Clear